Погода в Брин-Наволоке

Россия / Архангельская область     63°44′11″N   41°24′59″E
темп.,
°C
ветер,
м/с
пор.,
м/с
влажн.,
%
обл.,
%
осадки,
мм/ч
давл.,
гПа
погр.,
м
17 мая, пн
пн1700:00+9сз259696 0.0 1009152
03:00+10сз269439 0.0 1011174
06:00+11сз258647 0.0 1013238
09:00+16зсз226870 0.0 1015758
12:00+19з235477 0.0 10161267
15:00+20з234818 0.0 10171645
18:00+20юз12482 0.0 10171571
21:00+16ююв2364100 0.0 101845
18 мая, вт
вт1800:00+15ююв2572100 0.0 1018107
03:00+13ююв2882100 0.0 1019178
06:00+15ююв31073100 0.0 1019352
09:00+19ююв595493 0.0 1018767
12:00+22ююв5844100 0.0 10171381
15:00+24ююв5944100 0.0 10161452
18:00+23ююв5105068 0.0 10141108
21:00+20ююв414615 0.0 1013560
19 мая, ср
ср1900:00+18ююв4157496 0.0 1013536
03:00+16ююв41386100 0.0 1013373
06:00+18ююв41379100 0.0 1012458
09:00+24ю585338 0.0 1011731
12:00+28ю693862 0.0 10101555
15:00+30ююз510285 0.0 10103236
18:00+29ююз410305 0.0 10092028
21:00+23ю413500 0.0 1009370
20 мая, чт
чт2000:00+21ю415560 0.0 1009515
03:00+18ююз27715 0.0 1010172
06:00+20ююв39675 0.0 1010334
09:00+25ю465296 0.1 1009757
12:00+28ю593483 0.0 10082217
15:00+29ююз5827100 0.0 10072925
18:00+27ю384158 0.0 10061285
21:00+24ююв39514 0.0 1005307
21 мая, пт
пт2100:00+20ююв3146635 0.0 1005403
03:00+19ююв411680 0.0 1005442
06:00+19ю512663 0.0 1005911
09:00+22ю611505 0.0 10041792
12:00+24ю7123881 0.0 10022716
15:00+21ююз7125232 0.6 10031991
18:00+17ююз7126583 0.5 10031551
21:00+13ююз61470100 0.8 10051501